          14 18  02 25.67  +05 00.4   7.622  8.581     4.6 / 257  18.2   86  .65

          15 18  02 25.37  +04 59.4   7.619  8.581     4.6 / 257  18.2   74  .74

          16 18  02 25.07  +04 58.3   7.616  8.581     4.6 / 257  18.2   62  .82

          17 18  02 24.77  +04 57.3   7.613  8.582     4.7 / 257  18.2   50  .89

          18 18  02 24.46  +04 56.3   7.610  8.582     4.7 / 258  18.2   38  .94

          19 18  02 24.15  +04 55.3   7.608  8.582     4.7 / 258  18.2   26  .98

          20 18  02 23.85  +04 54.3   7.606  8.582     4.8 / 258  18.2   15 1.00

          21 18  02 23.53  +04 53.3   7.604  8.583     4.8 / 258  18.2    6 1.00

          22 18  02 23.22  +04 52.3   7.603  8.583     4.8 / 258  18.2   12  .98

          23 18  02 22.91  +04 51.4   7.602  8.583     4.8 / 259  18.2   23  .95

          24 18  02 22.59  +04 50.4   7.601  8.583     4.8 / 259  18.2   35  .90

          25 18  02 22.27  +04 49.5   7.601  8.583     4.8 / 259  18.2   47  .83

          26 18  02 21.96  +04 48.6   7.600  8.584     4.8 / 259  18.2   60  .75

          27 18  02 21.64  +04 47.7   7.601  8.584     4.8 / 260  18.2   72  .65

          28 18  02 21.32  +04 46.8   7.601  8.584     4.9 / 260  18.2   85  .55

          29 18  02 21.00  +04 45.9   7.602  8.584     4.8 / 260  18.2   99  .44

          30 18  02 20.68  +04 45.1   7.603  8.585     4.8 / 260  18.2  112  .34

          31 18  02 20.36  +04 44.3   7.604  8.585     4.8 / 261  18.2  127  .23

     Nov.  1 18  02 20.04  +04 43.5   7.606  8.585     4.8 / 261  18.2  141  .14

NAKANO

         **** Don't distribute anyone except personal use only ****

                (C) Copyright 2002 OAA/ComputingSection

write mail from CFAD0::NAKANO on 2002-09-13 21:47:35(JST).

 

    C/2001 T4 (NEAT) 

Epoch 2002 May  6.0 TT = JDT 2452400.5  

T 2002 May  12.47916 TT                                 Nakano

q   8.5672363            (2000.0)            P               Q

n   0.01900903     Peri.  321.48554     +0.87891363     -0.41269828

a  13.9047364      Node    64.48708     +0.47623736     +0.73129183

e   0.3838620      Incl.   15.36610     +0.02662355     +0.54303995

P  51.85

From 38 observations 2001 Aug. 27-2002 Jan. 11, mean residual 0".62.



NAKANO

         **** Don't distribute anyone except personal use only ****

                (C) Copyright 2002 OAA/ComputingSection

write mail from CFAD0::NAKANO on 2002-01-29 00:05:43(JST).

 

C/2001 T4の軌道と予報位置です



 この彗星の近日点距離は,第2位です.1月11日に久万の中村彰正氏によって

観測されました.氏の CCD全光度は,19.7等です.おそらく,これが最後の観測

ですね? 中村様. なお,次回の近日点通過は,2053年11月です.まだ,生き

てるかなぁ・・・  ぜひ,生きていて,予報の誤差を確かめたい.



    C/2001 T4 (NEAT) 

Epoch 2002 May  6.0 TT = JDT 2452400.5  

T 2002 May  12.47916 TT                                 Nakano

q   8.5672363            (2000.0)            P               Q

n   0.01900903     Peri.  321.48554     +0.87891363     -0.41269828

a  13.9047364      Node    64.48708     +0.47623736     +0.73129183

e   0.3838620      Incl.   15.36610     +0.02662355     +0.54303995

P  51.85

From 38 observations 2001 Aug. 27-2002 Jan. 11, mean residual 0".62.

 

Date/        TT  R.A.(2000) Decl.     Delta   r     Daily motion  Mag.  Moon Age

              h    h  m       。  ,                      ,  / PA 。  m1      。

2002 Jan. 25 12  01 13.66  -03 11.8   8.850  8.576     5.2 /  49  18.6   64  .85

          26 12  01 13.92  -03 08.5   8.865  8.576     5.2 /  50  18.6   78  .92

          27 12  01 14.19  -03 05.1   8.881  8.576     5.3 /  50  18.6   92  .97

          28 12  01 14.46  -03 01.7   8.896  8.576     5.4 /  51  18.6  106 1.00

          29 12  01 14.74  -02 58.2   8.911  8.575     5.5 /  51  18.6  121  .99

          30 12  01 15.02  -02 54.8   8.926  8.575     5.6 /  51  18.6  136  .96

          31 12  01 15.32  -02 51.3   8.940  8.575     5.6 /  52  18.6  151  .90

     Feb.  1 12  01 15.61  -02 47.8   8.955  8.575     5.7 /  52  18.6  165  .82

           2 12  01 15.91  -02 44.3   8.970  8.575     5.8 /  53  18.6  175  .73

           3 12  01 16.22  -02 40.8   8.984  8.575     5.9 /  53  18.6  165  .62

           4 12  01 16.53  -02 37.2   8.999  8.574     6.0 /  53  18.6  151  .51

           5 12  01 16.85  -02 33.7   9.013  8.574     6.0 /  54  18.6  138  .40

           6 12  01 17.18  -02 30.1   9.027  8.574     6.1 /  54  18.6  125  .30

           7 12  01 17.51  -02 26.5   9.041  8.574     6.2 /  54  18.6  113  .21

           8 12  01 17.84  -02 22.9   9.055  8.574     6.3 /  54  18.6  100  .13

           9 12  01 18.18  -02 19.2   9.069  8.574     6.3 /  55  18.6   88  .07

          10 12  01 18.53  -02 15.6   9.082  8.574     6.4 /  55  18.6   76  .03

          11 12  01 18.88  -02 11.9   9.096  8.573     6.5 /  55  18.6   64  .01

          12 12  01 19.23  -02 08.2   9.109  8.573     6.5 /  56  18.6   52  .00

          13 12  01 19.59  -02 04.5   9.122  8.573     6.6 /  56  18.6   40  .01

          14 12  01 19.96  -02 00.8   9.135  8.573     6.7 /  56  18.6   28  .04

          15 12  01 20.33  -01 57.0   9.148  8.573     6.8 /  56  18.6   17  .09

          16 12  01 20.70  -01 53.3   9.161  8.573     6.8 /  57  18.6    7  .15

          17 12  01 21.08  -01 49.5   9.173  8.573     6.9 /  57  18.6    9  .22

          18 12  01 21.47  -01 45.8   9.186  8.573     6.9 /  57  18.6   20  .31

          19 12  01 21.86  -01 42.0   9.198  8.572     7.0 /  57  18.6   31  .40

          20 12  01 22.25  -01 38.2   9.210  8.572     7.1 /  58  18.7   44  .50

          21 12  01 22.65  -01 34.4   9.222  8.572     7.1 /  58  18.7   56  .60

          22 12  01 23.05  -01 30.6   9.233  8.572     7.2 /  58  18.7   69  .70

          23 12  01 23.45  -01 26.8   9.245  8.572     7.2 /  58  18.7   83  .80

          24 12  01 23.86  -01 23.0   9.256  8.572     7.3 /  58  18.7   97  .88

          25 12  01 24.28  -01 19.2   9.267  8.572     7.3 /  59  18.7  111  .95

          26 12  01 24.70  -01 15.3   9.278  8.572     7.4 /  59  18.7  126  .99

          27 12  01 25.12  -01 11.5   9.289  8.571     7.4 /  59  18.7  141 1.00

          28 12  01 25.54  -01 07.7   9.300  8.571     7.5 /  59  18.7  156  .98

     Mar.  1 12  01 25.97  -01 03.8   9.310  8.571     7.5 /  59  18.7  170  .93

NAKANO

         **** Don't distribute anyone except personal use only ****

                (C) Copyright 2002 OAA/ComputingSection

write mail from CFAD0::NAKANO on 2002-01-26 04:22:23(JST).

 

    C/2001 T4 (NEAT) 

T 2002 May 13.31608 TT                                  Nakano

q   8.5693398            (2000.0)            P               Q

n   0.01899912     Peri.  321.53145     +0.87867422     -0.41319415

a  13.9095711      Node    64.47430     +0.47666050     +0.73097304

e   0.3839249      Incl.   15.36932     +0.02695136     +0.54309208

P  51.88

From 27 observations 2001 Aug. 27-Nov. 21.



NAKANO

         **** Don't distribute anyone except personal use only ****

                (C) Copyright 2001 OAA/ComputingSection

write mail from CFAD0::NAKANO on 2001-11-27 01:14:55(JST).

 





    C/2001 T4 (NEAT) 

T 2000 Nov. 9.45911 TT                                  Nakano

q   8.8455887            (2000.0)            P               Q

n   0.02311381     Peri.  300.49952     +0.96933073     -0.01477003

a  12.2054857      Node    61.36427     +0.14073565     +0.85167532

e   0.2752776      Incl.   16.23056     -0.20147312     +0.52386162

P  42.64

From 19 observations 2001 Oct. 15-25.



NAKANO

         **** Don't distribute anyone except personal use only ****

                (C) Copyright 2001 OAA/ComputingSection

write mail from CFAD0::NAKANO on 2001-10-29 22:52:42(JST).

 

◎C/2001 T4の軌道と予報位置です



 ダイニックの杉江淳氏から10月23日と25日の観測が報告されました.

氏の CCD全光度は,それぞれ,19.1等と19.5等でした.



    C/2001 T4 (NEAT) 

T 2000 Nov. 9.45911 TT                                  Nakano

q   8.8455887            (2000.0)            P               Q

n   0.02311381     Peri.  300.49952     +0.96933073     -0.01477003

a  12.2054857      Node    61.36427     +0.14073565     +0.85167532

e   0.2752776      Incl.   16.23056     -0.20147312     +0.52386162

P  42.64

From 19 observations 2001 Oct. 15-25.

 

Date/        TT  R.A.(2000) Decl.     Delta   r     Daily motion  Mag.  Moon Age

              h    h  m       。  ,                      ,  / PA 。  m1      。

2001 Oct. 30 14  01 16.79  -05 31.0   8.000  8.911     4.3 / 263  19.5    8  .97

          31 14  01 16.51  -05 31.5   8.007  8.911     4.2 / 264  19.5   17  .99

     Nov.  1 14  01 16.23  -05 32.0   8.014  8.911     4.2 / 264  19.5   29 1.00

           2 14  01 15.95  -05 32.4   8.021  8.912     4.1 / 265  19.5   41  .98

           3 14  01 15.67  -05 32.7   8.029  8.912     4.1 / 266  19.5   54  .94

           4 14  01 15.40  -05 33.0   8.036  8.913     4.0 / 266  19.5   68  .88

           5 14  01 15.13  -05 33.3   8.044  8.913     4.0 / 267  19.5   81  .80

           6 14  01 14.87  -05 33.5   8.053  8.913     3.9 / 267  19.5   95  .71

           7 14  01 14.60  -05 33.7   8.061  8.914     3.8 / 268  19.5  108  .60

           8 14  01 14.35  -05 33.8   8.070  8.914     3.8 / 269  19.5  122  .49

           9 14  01 14.09  -05 33.9   8.079  8.914     3.7 / 270  19.5  136  .38

          10 14  01 13.84  -05 34.0   8.088  8.915     3.7 / 270  19.5  150  .27

          11 14  01 13.60  -05 33.9   8.098  8.915     3.6 / 271  19.5  164  .17

          12 14  01 13.36  -05 33.9   8.108  8.915     3.5 / 272  19.5  173  .10

          13 14  01 13.12  -05 33.8   8.118  8.916     3.5 / 273  19.5  164  .04

          14 14  01 12.89  -05 33.6   8.128  8.916     3.4 / 274  19.6  150  .01

          15 14  01 12.66  -05 33.4   8.139  8.917     3.3 / 275  19.6  137  .00

          16 14  01 12.44  -05 33.1   8.150  8.917     3.2 / 276  19.6  123  .02

          17 14  01 12.23  -05 32.8   8.161  8.917     3.2 / 277  19.6  110  .06

          18 14  01 12.02  -05 32.4   8.172  8.918     3.1 / 278  19.6   97  .12

